Regional Weather Roundup
Issued by NWS State College, PA

Home | Current Version | Previous Version | Graphics & Text | Print | Product List | Glossary Off
Versions: 1 2 3 4 5 6 7 8 9 10 11 12 13 14 15 16 17 18 19 20 21 22 23 24 25 26 27 28 29 30 31 32 33 34 35 36 37 38 39 40 41 42 43 44 45 46 47 48 49 50

000
ASUS41 KCTP 250203
RWRCTP

REGIONAL WEATHER ROUNDUP
NATIONAL WEATHER SERVICE STATE COLLEGE PA
1000 PM EDT THU APR 24 2014

Note: "fair" indicates few or no clouds below 12,000 feet with no
significant weather and/or obstructions to visibility.

* = STATION THAT DOES NOT REPORT PRECIPITATION /E.G. RAIN...SNOW...ETC/
    THUNDER OR FOG.

PAZ002>004-007>009-013>016-020>023-029>032-250300-
WESTERN PENNSYLVANIA

CITY           SKY/WX    TMP DP  RH WIND       PRES   REMARKS
ERIE           PTCLDY    47  16  29 E6        30.01F
MEADVILLE      CLEAR     44  21  40 NE7       29.98F
FRANKLIN*      CLEAR     48  16  27 E3        30.01S
NEW CASTLE     FAIR      48  20  33 CALM      30.00R
BEAVER COUNTY  NOT AVBL
BUTLER*        MOCLDY    52  18  25 E5        30.01S
PITTSBURGH INT MOCLDY    53  19  26 E5        29.97F
PITTSBURGH     MOCLDY    54  19  25 E5        29.97F
INDIANA*       MOCLDY    46  27  46 CALM      30.01S
LATROBE        CLEAR     48  27  43 N6        30.00F
WASHINGTON CO* CLOUDY    46  25  42 CALM      29.98F
$$

PAZ004>006-010>012-017>019-024>028-033>037-041-042-045-046-049>053-250300-
CENTRAL PENNSYLVANIA

CITY           SKY/WX    TMP DP  RH WIND       PRES   REMARKS
BRADFORD       CLEAR     42  14  32 CALM      30.02R
DUBOIS         CLEAR     49  12  22 E3        29.99S
CLEARFIELD     CLEAR     46  17  31 N6        30.02R
JOHNSTOWN      PTCLDY    48  16  27 E5        29.99S
ALTOONA        CLEAR     45  26  47 E3        30.01S
STATE COLLEGE  CLEAR     53   0  11 NE3       30.01R
WILLIAMSPORT   CLEAR     47  18  31 NE5       30.03R
SELINSGROVE    CLEAR     45  28  51 NW5       30.03R
FT INDIANTOWN  CLEAR     47  19  31 NE1       30.03R
CAPITAL CITY   CLEAR     54  20  26 E5        30.02R
HARRISBURG     PTCLDY    53  30  41 CALM      30.01R
YORK           CLEAR     41  32  70 CALM      30.01S
$$

PAZ038>040-043-044-047-048-054-055-060>062-067>071-250300-
EASTERN PENNSYLVANIA

CITY           SKY/WX    TMP DP  RH WIND       PRES   REMARKS
SCRANTON       CLEAR     45  13  27 VRB3      30.05R
MOUNT POCONO   CLEAR     43  12  28 NW9       30.00S
ALLENTOWN      CLEAR     47  15  27 N6        30.03R
QUAKERTOWN*    CLEAR     50  14  23 CALM      30.04R
READING        CLEAR     52  17  25 CALM      30.02R
LANCASTER      CLEAR     49  18  29 NE8       30.01S
COATESVILLE    CLEAR     50  14  23 N3        30.03R
POTTSTOWN      CLEAR     51  13  21 N5        30.04R
BLUE BELL      CLEAR     54  12  19 CALM      30.01S
DOYLESTOWN     CLEAR     50  13  22 N6        30.01R
WILLOW GROVE   NOT AVBL
NORTH PHILA    CLEAR     54  12  18 NW8       30.04R
PHILADELPHIA   PTCLDY    57  10  15 NW7       30.03R
$$



USA.gov is the U.S. government's official web portal to all federal, state and local government web resources and services.